Home   Weather   Mülheim   Past weeks

Flag for Germany Past Weather in Mülheim, North Rhine-Westphalia, Germany — Yesterday and Last 2 Weeks

Now
50 °F

Passing clouds.


Feels Like: 47 °F
Forecast: 49 / 52 °F
Wind: 7 mph from Southwest

Location: Koeln / Bonn

Current Time: Feb 22, 2017 at 12:54:03 am

Latest Report: Feb 22, 2017 at 12:20 am


Visibility: 5 mi

Pressure: 29.92 "Hg

Humidity: 94%

Dew Point: 48 °F

Location of MülheimLocation

Past Weather in Mülheim — Graph

°F

Mülheim Temperature Yesterday

Maximum temperature yesterday: 52 °F (at 1:20 am)
Minimum temperature yesterday: 48 °F (at 5:20 am)
Average temperature yesterday: 50 °F

High & Low Weather Summary for the Past Weeks

 TemperatureHumidityPressure
High61 °F (Feb 15, 2:50 pm)100% (Feb 11, 9:20 am)30.54 "Hg (Feb 11, 9:20 am)
Low30 °F (Feb 9, 10:20 pm)39% (Feb 15, 2:20 pm)29.92 "Hg (Feb 21, 10:20 pm)
Average41 °F78%30.24 "Hg
* Reported Feb 6 11:20 pm — Feb 21 11:20 pm, Mülheim, Weather by CustomWeather, © 2017

Note: Actual official high and low records may vary slightly from our data, if they occured in-between our weather recording intervals... More about our weather records

Advertising

Mülheim Weather History for the Previous 24 Hours

Scroll right to see more
 ConditionsComfort  
Time TempWeatherWind HumidityBarometerVisibility
11:20 pm
Tue, Feb 21
50 °FLight rain. Overcast.7 mph88%29.92 "HgN/A
10:50 pm48 °FLight rain. Overcast.7 mph94%29.92 "HgN/A
10:20 pm48 °FPassing clouds.7 mph94%29.92 "HgN/A
9:50 pm48 °FOvercast.7 mph94%29.95 "HgN/A
9:20 pm48 °FOvercast.7 mph94%29.95 "HgN/A
8:50 pm48 °FOvercast.5 mph94%29.98 "HgN/A
8:20 pm48 °FPassing clouds.5 mph94%29.98 "HgN/A
7:50 pm48 °FPassing clouds.5 mph94%29.98 "HgN/A
7:20 pm48 °FPassing clouds.7 mph94%29.98 "HgN/A
6:50 pm48 °FPassing clouds.7 mph94%29.98 "HgN/A
6:20 pm48 °FPassing clouds.9 mph94%29.98 "HgN/A
5:50 pm50 °FPartly sunny.10 mph88%29.98 "HgN/A
5:20 pm50 °FBroken clouds.12 mph88%29.98 "HgN/A
4:50 pm52 °FPartly sunny.12 mph82%29.98 "HgN/A
4:20 pm52 °FBroken clouds.9 mph82%29.98 "HgN/A
3:50 pm52 °FBroken clouds.10 mph82%29.98 "HgN/A
3:20 pm52 °FBroken clouds.13 mph77%29.98 "HgN/A
2:50 pm52 °FBroken clouds.14 mph77%29.98 "HgN/A
2:20 pm52 °FBroken clouds.10 mph82%29.98 "HgN/A
1:50 pm52 °FPartly sunny.10 mph88%30.01 "HgN/A
1:20 pm50 °FSprinkles. Broken clouds.9 mph94%30.01 "HgN/A
12:50 pm52 °FSprinkles. Broken clouds.13 mph82%30.01 "HgN/A
12:20 pm52 °FBroken clouds.13 mph82%30.01 "HgN/A
11:50 am52 °FSprinkles. Broken clouds.12 mph82%30.01 "HgN/A
11:20 am50 °FSprinkles. Partly sunny.12 mph94%30.01 "HgN/A
10:50 am52 °FPartly sunny.15 mph88%30.01 "HgN/A
10:20 am52 °FPartly sunny.12 mph88%29.98 "Hg6 mi
9:50 am50 °FPartly sunny.8 mph94%29.98 "HgN/A
9:20 am50 °FPartly sunny.9 mph94%29.98 "HgN/A
8:50 am50 °FPartly sunny.7 mph88%29.98 "HgN/A
8:20 am48 °FLight rain. Broken clouds.9 mph94%29.98 "HgN/A
7:50 am48 °FPartly sunny.10 mph94%29.98 "HgN/A
7:20 am50 °FPassing clouds.12 mph82%29.95 "HgN/A
6:50 am50 °FLight rain. Passing clouds.9 mph88%29.95 "HgN/A
6:20 am48 °FPassing clouds.8 mph94%29.95 "HgN/A
5:50 am48 °FMostly cloudy.12 mph94%29.95 "HgN/A
5:20 am48 °FDrizzle. Mostly cloudy.10 mph100%29.95 "HgN/A
4:50 am50 °FDrizzle. Mostly cloudy.15 mph94%29.95 "Hg5 mi
4:20 am50 °FDrizzle. Fog.10 mph100%29.95 "Hg3 mi
3:50 am50 °FDrizzle. Fog.12 mph100%29.95 "Hg3 mi
3:20 am50 °FDrizzle. Mostly cloudy.13 mph100%29.95 "Hg3 mi
2:50 am52 °FDrizzle. Mostly cloudy.15 mph94%29.95 "Hg4 mi
2:20 am52 °FDrizzle. Fog.14 mph94%29.95 "Hg3 mi
1:50 am52 °FDrizzle. Fog.16 mph94%29.95 "Hg3 mi
1:20 am52 °FDrizzle. Fog.16 mph94%29.95 "Hg2 mi
12:50 am50 °FDrizzle. Fog.16 mph100%29.95 "Hg3 mi
12:20 am50 °FDrizzle. Low clouds.15 mph100%29.95 "Hg3 mi
Weather by CustomWeather, © 2017

See weather overviewHow to use our weather pages